#Datum;Uhrzeit;WR;Pac;DaySum;Status;WR;Pac;DaySum;Status;Pdc1;Udc;Temp;WR;Pac;DaySum;Status;Pdc1;Udc;Temp;WR;Pac;DaySum;Status;Pdc1;Udc;Temp;WR;Pac;DaySum;Status;Pdc1;Pdc2;Udc1;Udc2;Temp;WR;Pac;DaySum;Status;Pdc1;Pdc2;Udc1;Udc2;Temp;WR;Pac;DaySum;Status;Pdc1;Udc;Temp;WR;Pac;DaySum;Status;Pdc1;Udc;Temp;WR;Pac;DaySum;Status;Pdc1;Udc;Temp
01.09.21;23:55:00;1;504;8487;0;2;0;34008;0;0;0;0;3;0;21624;0;0;0;0;4;0;31045;0;0;0;0;5;0;66810;0;0;0;0;0;0;6;0;50397;0;0;0;0;0;0;7;0;41031;0;0;0;0;8;0;41060;0;0;0;0;9;0;22617;0;0;0;0
01.09.21;23:50:00;1;521;8445;0;2;0;34008;0;0;0;0;3;0;21624;0;0;0;0;4;0;31045;0;0;0;0;5;0;66810;0;0;0;0;0;0;6;0;50397;0;0;0;0;0;0;7;0;41031;0;0;0;0;8;0;41060;0;0;0;0;9;0;22617;0;0;0;0
01.09.21;23:45:00;1;511;8401;0;2;0;34008;0;0;0;0;3;0;21624;0;0;0;0;4;0;31045;0;0;0;0;5;0;66810;0;0;0;0;0;0;6;0;50397;0;0;0;0;0;0;7;0;41031;0;0;0;0;8;0;41060;0;0;0;0;9;0;22617;0;0;0;0
01.09.21;23:40:00;1;415;8358;0;2;0;34008;0;0;0;0;3;0;21624;0;0;0;0;4;0;31045;0;0;0;0;5;0;66810;0;0;0;0;0;0;6;0;50397;0;0;0;0;0;0;7;0;41031;0;0;0;0;8;0;41060;0;0;0;0;9;0;22617;0;0;0;0
01.09.21;23:35:00;1;419;8323;0;2;0;34008;0;0;0;0;3;0;21624;0;0;0;0;4;0;31045;0;0;0;0;5;0;66810;0;0;0;0;0;0;6;0;50397;0;0;0;0;0;0;7;0;41031;0;0;0;0;8;0;41060;0;0;0;0;9;0;22617;0;0;0;0
01.09.21;23:30:00;1;487;8288;0;2;0;34008;0;0;0;0;3;0;21624;0;0;0;0;4;0;31045;0;0;0;0;5;0;66810;0;0;0;0;0;0;6;0;50397;0;0;0;0;0;0;7;0;41031;0;0;0;0;8;0;41060;0;0;0;0;9;0;22617;0;0;0;0
01.09.21;23:25:00;1;374;8249;0;2;0;34008;0;0;0;0;3;0;21624;0;0;0;0;4;0;31045;0;0;0;0;5;0;66810;0;0;0;0;0;0;6;0;50397;0;0;0;0;0;0;7;0;41031;0;0;0;0;8;0;41060;0;0;0;0;9;0;22617;0;0;0;0
01.09.21;23:20:00;1;376;8218;0;2;0;34008;0;0;0;0;3;0;21624;0;0;0;0;4;0;31045;0;0;0;0;5;0;66810;0;0;0;0;0;0;6;0;50397;0;0;0;0;0;0;7;0;41031;0;0;0;0;8;0;41060;0;0;0;0;9;0;22617;0;0;0;0
01.09.21;23:15:00;1;391;8186;0;2;0;34008;0;0;0;0;3;0;21624;0;0;0;0;4;0;31045;0;0;0;0;5;0;66810;0;0;0;0;0;0;6;0;50397;0;0;0;0;0;0;7;0;41031;0;0;0;0;8;0;41060;0;0;0;0;9;0;22617;0;0;0;0
01.09.21;23:10:00;1;392;8153;0;2;0;34008;0;0;0;0;3;0;21624;0;0;0;0;4;0;31045;0;0;0;0;5;0;66810;0;0;0;0;0;0;6;0;50397;0;0;0;0;0;0;7;0;41031;0;0;0;0;8;0;41060;0;0;0;0;9;0;22617;0;0;0;0
01.09.21;23:05:00;1;392;8121;0;2;0;34008;0;0;0;0;3;0;21624;0;0;0;0;4;0;31045;0;0;0;0;5;0;66810;0;0;0;0;0;0;6;0;50397;0;0;0;0;0;0;7;0;41031;0;0;0;0;8;0;41060;0;0;0;0;9;0;22617;0;0;0;0
01.09.21;23:00:00;1;420;8088;0;2;0;34008;0;0;0;0;3;0;21624;0;0;0;0;4;0;31045;0;0;0;0;5;0;66810;0;0;0;0;0;0;6;0;50397;0;0;0;0;0;0;7;0;41031;0;0;0;0;8;0;41060;0;0;0;0;9;0;22617;0;0;0;0
01.09.21;22:55:00;1;339;8054;0;2;0;34008;0;0;0;0;3;0;21624;0;0;0;0;4;0;31045;0;0;0;0;5;0;66810;2;0;0;0;0;0;6;0;50397;2;0;0;0;0;0;7;0;41031;0;0;0;0;8;0;41060;0;0;0;0;9;0;22617;0;0;0;0
01.09.21;22:50:00;1;429;8025;0;2;0;34008;0;0;0;0;3;0;21624;0;0;0;0;4;0;31045;0;0;0;0;5;0;66810;2;0;0;0;0;0;6;0;50397;2;0;0;0;0;0;7;0;41031;0;0;0;0;8;0;41060;0;0;0;0;9;0;22617;0;0;0;0
01.09.21;22:45:00;1;421;7988;0;2;0;34008;0;0;0;0;3;0;21624;0;0;0;0;4;0;31045;0;0;0;0;5;0;66810;2;0;0;0;0;0;6;0;50397;2;0;0;0;0;0;7;0;41031;0;0;0;0;8;0;41060;0;0;0;0;9;0;22617;0;0;0;0
01.09.21;22:40:00;1;457;7952;0;2;0;34008;0;0;0;0;3;0;21624;0;0;0;0;4;0;31045;0;0;0;0;5;0;66810;2;0;0;0;0;0;6;0;50397;2;0;0;0;0;0;7;0;41031;0;0;0;0;8;0;41060;0;0;0;0;9;0;22617;0;0;0;0
01.09.21;22:35:00;1;518;7913;0;2;0;34008;0;0;0;0;3;0;21624;0;0;0;0;4;0;31045;0;0;0;0;5;0;66810;2;0;0;0;0;0;6;0;50397;2;0;0;0;0;0;7;0;41031;0;0;0;0;8;0;41060;0;0;0;0;9;0;22617;0;0;0;0
01.09.21;22:30:00;1;1785;7858;0;2;0;34008;0;0;0;0;3;0;21624;0;0;0;0;4;0;31045;0;0;0;0;5;0;66810;2;0;0;0;0;0;6;0;50397;2;0;0;0;0;0;7;0;41031;0;0;0;0;8;0;41060;0;0;0;0;9;0;22617;0;0;0;0
01.09.21;22:25:00;1;448;7739;0;2;0;34008;0;0;0;0;3;0;21624;0;0;0;0;4;0;31045;0;0;0;0;5;0;66810;2;0;0;0;0;0;6;0;50397;2;0;0;0;0;0;7;0;41031;0;0;0;0;8;0;41060;0;0;0;0;9;0;22617;0;0;0;0
01.09.21;22:20:00;1;325;7701;0;2;0;34008;0;0;0;0;3;0;21624;0;0;0;0;4;0;31045;0;0;0;0;5;0;66810;2;0;0;0;0;0;6;0;50397;2;0;0;0;0;0;7;0;41031;0;0;0;0;8;0;41060;0;0;0;0;9;0;22617;0;0;0;0
01.09.21;22:15:00;1;272;7675;0;2;0;34008;0;0;0;0;3;0;21624;0;0;0;0;4;0;31045;0;0;0;0;5;0;66810;2;0;0;0;0;0;6;0;50397;2;0;0;0;0;0;7;0;41031;0;0;0;0;8;0;41060;0;0;0;0;9;0;22617;0;0;0;0
01.09.21;22:10:00;1;248;7653;0;2;0;34008;0;0;0;0;3;0;21624;0;0;0;0;4;0;31045;0;0;0;0;5;0;66810;2;0;0;0;0;0;6;0;50397;2;0;0;0;0;0;7;0;41031;0;0;0;0;8;0;41060;0;0;0;0;9;0;22617;0;0;0;0
01.09.21;22:05:00;1;251;7632;0;2;0;34008;0;0;0;0;3;0;21624;0;0;0;0;4;0;31045;0;0;0;0;5;0;66810;2;0;0;0;0;0;6;0;50397;2;0;0;0;0;0;7;0;41031;0;0;0;0;8;0;41060;0;0;0;0;9;0;22617;0;0;0;0
01.09.21;22:00:00;1;251;7611;0;2;0;34008;0;0;0;0;3;0;21624;0;0;0;0;4;0;31045;0;0;0;0;5;0;66810;2;0;0;0;0;0;6;0;50397;2;0;0;0;0;0;7;0;41031;0;0;0;0;8;0;41060;0;0;0;0;9;0;22617;0;0;0;0
01.09.21;21:55:00;1;307;7577;0;2;0;34008;0;0;0;0;3;0;21624;0;0;0;0;4;0;31045;0;0;0;0;5;0;66810;2;0;0;0;0;0;6;0;50397;2;0;0;0;0;0;7;0;41031;0;0;0;0;8;0;41060;0;0;0;0;9;0;22617;0;0;0;0
01.09.21;21:50:00;1;265;7552;0;2;0;34008;0;0;0;0;3;0;21624;0;0;0;0;4;0;31045;0;0;0;0;5;0;66810;2;0;0;0;0;0;6;0;50397;2;0;0;0;0;0;7;0;41031;0;0;0;0;8;0;41060;0;0;0;0;9;0;22617;0;0;0;0
01.09.21;21:45:00;1;249;7530;0;2;0;34008;0;0;0;0;3;0;21624;0;0;0;0;4;0;31045;0;0;0;0;5;0;66810;2;0;0;0;0;0;6;0;50397;2;0;0;0;0;0;7;0;41031;0;0;0;0;8;0;41060;0;0;0;0;9;0;22617;0;0;0;0
01.09.21;21:40:00;1;341;7509;0;2;0;34008;0;0;0;0;3;0;21624;0;0;0;0;4;0;31045;0;0;0;0;5;0;66810;2;0;0;0;0;0;6;0;50397;2;0;0;0;0;0;7;0;41031;0;0;0;0;8;0;41060;0;0;0;0;9;0;22617;0;0;0;0
01.09.21;21:35:00;1;346;7481;0;2;0;34008;0;0;0;0;3;0;21624;0;0;0;0;4;0;31045;0;0;0;0;5;0;66810;2;0;0;0;0;0;6;0;50397;2;0;0;0;0;0;7;0;41031;0;0;0;0;8;0;41060;0;0;0;0;9;0;22617;0;0;0;0
01.09.21;21:30:00;1;311;7453;0;2;0;34008;0;0;0;0;3;0;21624;0;0;0;0;4;0;31045;0;0;0;0;5;0;66810;2;0;0;0;0;0;6;0;50397;2;0;0;0;0;0;7;0;41031;0;0;0;0;8;0;41060;0;0;0;0;9;0;22617;0;0;0;0
01.09.21;21:25:00;1;414;7427;0;2;0;34008;0;0;0;0;3;0;21624;0;0;0;0;4;0;31045;0;0;0;0;5;0;66810;2;0;0;0;0;0;6;0;50397;2;0;0;0;0;0;7;0;41031;0;0;0;0;8;0;41060;0;0;0;0;9;0;22617;0;0;0;0
01.09.21;21:20:00;1;445;7392;0;2;0;34008;0;0;0;0;3;0;21624;0;0;0;0;4;0;31045;0;0;0;0;5;0;66810;2;0;0;0;0;0;6;0;50397;2;0;0;0;0;0;7;0;41031;0;0;0;0;8;0;41060;0;0;0;0;9;0;22617;0;0;0;0
01.09.21;21:15:00;1;373;7356;0;2;0;34008;0;0;0;0;3;0;21624;0;0;0;0;4;0;31045;0;0;0;0;5;0;66810;2;0;0;0;0;0;6;0;50397;2;0;0;0;0;0;7;0;41031;0;0;0;0;8;0;41060;0;0;0;0;9;0;22617;0;0;0;0
01.09.21;21:10:00;1;292;7325;0;2;0;34008;0;0;0;0;3;0;21624;0;0;0;0;4;0;31045;0;0;0;0;5;0;66810;2;0;0;0;0;0;6;0;50397;2;0;0;0;0;0;7;0;41031;0;0;0;0;8;0;41060;0;0;0;0;9;0;22617;0;0;0;0
01.09.21;21:05:00;1;294;7301;0;2;0;34008;0;0;0;0;3;0;21624;0;0;0;0;4;0;31045;0;0;0;0;5;0;66810;2;0;0;0;0;0;6;0;50397;2;0;0;0;0;0;7;0;41031;0;0;0;0;8;0;41060;0;0;0;0;9;0;22617;0;0;0;0
01.09.21;21:00:00;1;260;7276;0;2;0;34008;0;0;0;0;3;0;21624;0;0;0;0;4;0;31045;0;0;0;0;5;0;66810;2;0;0;0;0;0;6;0;50397;2;0;0;0;0;0;7;0;41031;0;0;0;0;8;0;41060;0;0;0;0;9;0;22617;0;0;0;0
01.09.21;20:55:00;1;249;7254;0;2;0;34008;0;0;0;0;3;0;21624;0;0;0;0;4;0;31045;0;0;0;0;5;0;66810;2;0;0;0;0;0;6;0;50397;2;0;0;0;0;0;7;0;41031;0;0;0;0;8;0;41060;0;0;0;0;9;0;22617;0;0;0;0
01.09.21;20:50:00;1;311;7233;0;2;0;34008;0;0;0;0;3;0;21624;0;0;0;0;4;0;31045;0;0;0;0;5;0;66810;2;0;0;0;0;0;6;0;50397;2;0;0;0;0;0;7;0;41031;0;0;0;0;8;0;41060;0;0;0;0;9;0;22617;0;0;0;0
01.09.21;20:45:00;1;250;7207;0;2;0;34008;0;0;0;0;3;0;21624;0;0;0;0;4;0;31045;0;0;0;0;5;0;66810;2;0;0;0;0;0;6;0;50397;2;0;0;0;0;0;7;0;41031;0;0;0;0;8;0;41060;0;0;0;0;9;0;22617;0;0;0;0
01.09.21;20:40:00;1;250;7186;0;2;0;34008;0;0;0;0;3;0;21624;0;0;0;0;4;0;31045;0;0;0;0;5;0;66810;2;0;0;0;0;0;6;0;50397;2;0;0;0;0;0;7;0;41031;0;0;0;0;8;0;41060;0;0;0;0;9;0;22617;0;0;0;0
01.09.21;20:35:00;1;257;7165;0;2;0;34008;0;0;0;0;3;0;21624;0;0;0;0;4;0;31045;0;0;0;0;5;0;66810;2;0;0;0;0;0;6;0;50397;2;0;0;0;0;0;7;0;41031;0;0;0;0;8;0;41060;0;0;0;0;9;0;22617;0;0;0;0
01.09.21;20:30:00;1;299;7143;0;2;0;34008;0;0;0;0;3;0;21624;0;0;0;0;4;0;31045;0;0;0;0;5;0;66810;2;0;0;0;0;0;6;0;50397;2;0;0;0;0;0;7;0;41031;0;0;0;0;8;0;41060;0;0;0;0;9;0;22617;0;0;0;0
01.09.21;20:25:00;1;266;7118;0;2;0;34008;0;0;0;0;3;0;21624;0;0;0;0;4;0;31045;0;0;0;0;5;0;66810;2;0;0;0;0;0;6;0;50397;2;0;0;0;0;0;7;0;41031;0;0;0;0;8;0;41060;0;0;0;0;9;0;22617;0;0;0;0
01.09.21;20:20:00;1;250;7095;0;2;0;34008;0;0;0;0;3;0;21624;0;0;0;0;4;0;31045;0;0;0;0;5;0;66810;2;0;0;0;0;0;6;0;50397;2;0;0;0;0;0;7;0;41031;0;0;0;0;8;0;41060;0;0;0;0;9;0;22617;0;0;0;0
01.09.21;20:15:00;1;349;7072;0;2;0;34008;0;0;41;4;3;0;21624;0;0;182;18;4;0;31045;0;0;0;0;5;0;66810;2;0;0;0;0;0;6;0;50397;2;0;0;0;0;0;7;0;41031;0;0;0;0;8;0;41060;0;0;0;0;9;0;22617;0;0;0;0
01.09.21;20:10:00;1;350;7042;0;2;0;34008;6;0;295;27;3;0;21624;6;0;349;28;4;0;31045;2;0;81;30;5;0;66810;2;0;0;0;0;0;6;0;50397;2;0;0;0;0;0;7;0;41031;0;0;0;0;8;0;41060;0;0;0;0;9;0;22617;0;0;0;0
01.09.21;20:05:00;1;350;7013;0;2;0;34008;6;0;337;27;3;0;21624;6;2;408;29;4;0;31045;1;0;135;31;5;0;66810;1;0;0;241;240;31;6;0;50397;2;0;0;130;129;14;7;0;41031;0;0;220;24;8;0;41060;0;0;220;23;9;0;22617;0;0;230;20
01.09.21;20:00:00;1;286;6986;0;2;0;34008;6;0;364;28;3;0;21624;6;2;444;29;4;0;31045;1;0;180;31;5;0;66810;26;0;0;381;419;39;6;0;50397;23;0;0;509;498;37;7;0;41031;6;0;349;30;8;0;41060;6;0;351;30;9;0;22617;6;0;364;26
01.09.21;19:55:00;1;289;6962;0;2;0;34008;6;0;378;29;3;0;21624;6;0;481;29;4;0;31045;1;0;206;32;5;15;66810;1;0;0;384;597;39;6;0;50397;23;0;0;532;527;37;7;0;41031;6;0;399;30;8;0;41060;6;0;400;30;9;0;22617;6;0;415;26
01.09.21;19:50:00;1;293;6938;0;2;0;34008;6;0;392;29;3;3;21624;3;9;459;30;4;0;31045;3;0;210;33;5;34;66810;1;0;1;387;614;40;6;12;50397;1;0;0;543;530;38;7;0;41031;4;5;409;31;8;0;41060;6;1;425;31;9;0;22617;6;1;454;27
01.09.21;19:45:00;1;322;6913;0;2;41;34008;6;70;371;30;3;5;21624;6;12;497;30;4;4;31045;3;4;200;33;5;88;66807;4;1;13;367;583;41;6;54;50396;1;0;6;528;509;38;7;0;41031;6;8;438;31;8;2;41060;4;5;444;31;9;1;22617;3;3;482;27
01.09.21;19:40:00;1;245;6886;0;2;102;34005;4;139;363;31;3;28;21623;6;46;496;31;4;30;31045;3;31;198;33;5;125;66799;4;17;34;367;583;41;6;92;50392;4;0;21;516;497;39;7;14;41031;6;32;416;32;8;11;41060;3;20;440;31;9;2;22617;6;6;507;27
01.09.21;19:35:00;1;246;6866;0;2;178;33996;4;217;355;32;3;74;21621;4;108;372;32;4;50;31042;3;53;197;34;5;159;66788;4;38;50;367;583;41;6;119;50384;4;4;36;516;497;39;7;47;41030;4;82;366;32;8;45;41059;4;81;371;32;9;4;22617;6;9;514;28
01.09.21;19:30:00;1;245;6845;0;2;338;33981;4;382;352;33;3;150;21615;4;186;361;32;4;103;31038;3;108;206;34;5;204;66774;4;67;69;367;583;41;6;153;50374;4;23;56;516;497;39;7;83;41026;4;121;398;32;8;81;41055;4;118;392;32;9;5;22617;6;10;527;28
01.09.21;19:25:00;1;245;6825;0;2;458;33953;4;508;361;34;3;225;21602;4;259;374;33;4;160;31030;5;167;205;35;5;241;66757;4;80;86;367;583;41;6;178;50361;4;35;66;516;497;39;7;118;41019;4;154;410;33;8;103;41049;4;144;385;33;9;33;22616;6;55;392;29
01.09.21;19:20:00;1;294;6804;0;2;542;33915;4;594;366;34;3;286;21584;4;328;403;33;4;198;31016;5;206;227;35;5;277;66737;4;101;101;368;583;41;6;204;50346;4;48;77;516;497;39;7;159;41009;4;192;407;33;8;153;41040;4;192;418;33;9;65;22614;4;94;456;29
01.09.21;19:15:00;1;346;6779;0;2;562;33871;4;614;359;35;3;305;21560;4;348;396;33;4;228;31000;5;237;228;36;5;294;66714;4;116;108;368;583;42;6;221;50328;4;57;87;516;497;39;7;179;40996;4;224;420;33;8;229;41028;4;276;443;33;9;77;22608;4;109;460;30
01.09.21;19:10:00;1;330;6751;0;2;566;33823;4;618;358;36;3;319;21534;4;365;400;34;4;239;30981;5;249;222;36;5;318;66689;4;129;119;367;583;42;6;235;50310;4;67;95;516;497;40;7;213;40981;4;253;408;34;8;310;41008;4;352;441;34;9;91;22602;4;126;485;30
01.09.21;19:05:00;1;356;6725;0;2;551;33777;4;604;358;36;3;299;21508;4;340;393;34;4;285;30961;5;297;199;37;5;340;66663;4;141;127;367;583;42;6;253;50290;4;75;102;515;497;40;7;247;40964;4;287;391;34;8;327;40983;4;371;437;34;9;102;22594;4;135;504;31
01.09.21;19:00:00;1;389;6695;0;2;893;33730;4;957;360;37;3;483;21482;4;529;395;35;4;558;30937;5;581;215;37;5;368;66634;4;151;144;367;583;42;6;277;50269;4;83;111;516;497;40;7;374;40943;4;419;410;34;8;551;40955;4;603;443;34;9;110;22586;4;148;517;31
01.09.21;18:55:00;1;390;6663;0;2;944;33656;4;1013;368;38;3;511;21442;4;559;401;35;4;649;30891;5;676;232;38;5;390;66603;4;164;153;367;583;42;6;291;50246;4;88;119;516;497;40;7;456;40912;4;495;396;35;8;630;40910;4;686;440;34;9;113;22576;4;154;517;32
01.09.21;18:50:00;1;339;6632;0;2;1074;33577;4;1151;372;39;3;581;21400;4;635;407;36;4;751;30836;5;782;235;38;5;450;66570;4;193;171;384;583;42;6;328;50221;4;103;139;516;497;40;7;624;40874;4;678;388;35;8;760;40857;4;813;450;35;9;111;22567;4;141;388;32
01.09.21;18:45:00;1;301;6603;0;2;1097;33487;4;1171;368;40;3;599;21351;4;652;401;36;4;779;30774;5;811;236;39;5;501;66532;4;226;191;393;592;43;6;355;50194;4;116;152;516;497;40;7;740;40822;4;803;424;35;8;802;40794;4;858;451;35;9;128;22558;4;159;353;32
01.09.21;18:40:00;1;352;6577;0;2;1123;33394;4;1199;374;41;3;609;21300;4;662;403;37;4;818;30708;5;852;233;39;5;562;66489;4;251;223;394;607;43;6;402;50163;4;137;179;516;497;40;7;880;40760;4;947;440;36;8;903;40726;4;966;451;36;9;245;22547;4;277;352;33
01.09.21;18:35:00;1;310;6548;0;2;1116;33300;4;1197;376;42;3;585;21249;4;639;399;37;4;799;30639;5;832;230;40;5;611;66443;4;281;238;396;614;43;6;445;50130;4;163;200;521;524;41;7;888;40686;4;944;453;36;8;873;40650;4;933;456;36;9;301;22527;4;334;358;34
01.09.21;18:30:00;1;249;6524;0;2;1570;33206;4;1667;379;43;3;828;21200;4;889;410;38;4;1145;30572;5;1192;234;40;5;847;66390;4;403;339;397;640;43;6;627;50091;4;245;278;557;536;41;7;1276;40611;4;1356;463;37;8;1268;40577;4;1346;454;37;9;480;22502;4;527;367;35
01.09.21;18:25:00;1;250;6503;0;2;1658;33076;4;1760;380;44;3;874;21131;4;938;413;38;4;1240;30477;5;1291;237;41;5;978;66319;4;475;397;403;639;44;6;735;50038;4;286;330;553;541;41;7;1401;40505;4;1482;458;37;8;1398;40471;4;1481;457;37;9;563;22461;4;610;383;35
01.09.21;18:20:00;1;249;6481;0;2;1875;32938;4;1984;381;45;3;966;21058;4;1032;402;39;4;1389;30374;5;1446;235;42;5;1159;66238;4;570;471;404;644;44;6;855;49978;4;353;383;559;537;41;7;1554;40388;4;1646;459;38;8;1534;40354;4;1625;459;37;9;647;22414;4;700;406;36
01.09.21;18:15:00;1;247;6460;0;2;1704;32784;4;1812;379;46;3;879;20979;4;942;399;39;4;1286;30260;5;1340;231;42;5;1191;66141;4;589;487;396;646;44;6;888;49905;4;367;410;578;530;41;7;1484;40260;4;1568;452;38;8;1484;40229;4;1572;456;38;9;660;22361;4;713;415;37
01.09.21;18:10:00;1;343;6440;0;2;1942;32641;4;2062;383;47;3;1002;20905;4;1071;400;40;4;1472;30152;5;1533;229;43;5;1434;66040;4;719;592;405;658;45;6;1071;49830;4;460;492;571;542;42;7;1691;40136;4;1788;449;38;8;1688;40104;4;1782;451;38;9;774;22306;4;836;430;38
01.09.21;18:05:00;1;1622;6411;0;2;2212;32479;4;2344;382;48;3;1176;20822;4;1248;417;40;4;1704;30030;5;1775;230;43;5;1736;65919;4;886;730;407;659;45;6;1301;49740;4;581;609;575;540;42;7;1974;39995;4;2092;458;39;8;1962;39964;4;2073;456;39;9;935;22242;4;1001;440;39
01.09.21;18:00:00;1;2222;6253;0;2;2486;32293;4;2629;382;49;3;1324;20723;4;1403;418;41;4;1930;29887;5;2010;229;44;5;1975;65770;4;1033;832;402;657;45;6;1492;49629;4;684;700;574;547;42;7;2245;39830;4;2388;451;39;8;2261;39800;4;2383;454;39;9;1119;22164;4;1195;453;39
01.09.21;17:55:00;1;440;6068;0;2;2664;32087;4;2816;377;49;3;1424;20613;4;1503;420;41;4;2081;29726;5;2167;230;44;5;2205;65604;4;1150;929;405;665;46;6;1656;49504;4;773;775;574;550;42;7;2476;39644;4;2602;452;40;8;2455;39611;4;2586;451;39;9;1249;22070;4;1328;462;40
01.09.21;17:50:00;1;482;6027;0;2;2782;31865;4;2943;378;50;3;1519;20494;4;1606;427;42;4;2199;29552;5;2290;231;45;5;2431;65418;4;1275;1034;408;658;46;6;1820;49364;4;848;857;576;537;42;7;2630;39437;4;2770;452;40;8;2614;39406;4;2759;449;40;9;1359;21967;4;1445;472;41
01.09.21;17:45:00;1;345;5989;0;2;2862;31632;4;3025;379;51;3;1570;20367;4;1660;424;42;4;2275;29369;5;2370;230;45;5;2615;65214;4;1384;1119;407;665;46;6;1970;49212;4;930;928;574;545;42;7;2758;39218;4;2903;453;40;8;2740;39189;4;2887;443;40;9;1451;21853;4;1543;480;41
01.09.21;17:40:00;1;325;5959;0;2;2933;31395;4;3098;369;51;3;1605;20236;4;1693;414;42;4;2353;29180;5;2451;227;46;5;2816;64995;4;1496;1208;404;665;46;6;2116;49046;4;1010;999;570;543;43;7;2884;38988;4;3035;449;41;8;2873;38960;4;3018;449;41;9;1552;21732;4;1649;493;42
01.09.21;17:35:00;1;345;5931;0;2;2951;31149;4;3114;374;51;3;1634;20103;4;1726;427;43;4;2367;28983;5;2465;227;46;5;2945;64758;4;1560;1264;406;653;47;6;2209;48870;4;1053;1049;566;543;43;7;2921;38748;4;3073;447;41;8;2908;38720;4;3057;446;41;9;1596;21603;4;1695;498;42
01.09.21;17:30:00;1;289;5904;0;2;3050;30904;4;3217;372;52;3;1698;19967;4;1791;425;43;4;2464;28787;5;2566;228;46;5;3177;64511;4;1696;1364;404;655;47;6;2383;48684;4;1144;1132;567;543;43;7;3052;38504;4;3213;453;41;8;3039;38479;4;3195;447;41;9;1667;21471;4;1769;494;43
01.09.21;17:25:00;1;395;5879;0;2;3042;30650;4;3211;371;52;3;1706;19825;4;1803;439;44;4;2447;28581;5;2549;226;47;5;3250;64246;4;1739;1400;403;650;47;6;2436;48485;4;1171;1168;570;538;43;7;3047;38255;4;3198;442;42;8;3031;38229;4;3190;443;42;9;1672;21334;4;1774;498;43
01.09.21;17:20:00;1;324;5848;0;2;3120;30395;4;3298;374;53;3;1782;19682;4;1883;437;44;4;2572;28375;5;2679;227;47;5;3526;63969;4;1886;1529;402;652;47;6;2632;48279;4;1276;1258;571;538;43;7;3190;37995;4;3358;441;42;8;3176;37972;4;3339;443;42;9;1741;21191;4;1846;486;44
01.09.21;17:15:00;1;412;5821;0;2;3311;30133;4;3492;366;54;3;1906;19533;4;2010;439;45;4;2735;28161;5;2849;228;47;5;3822;63676;4;2055;1657;402;648;47;6;2843;48059;4;1387;1363;569;537;43;7;3393;37728;4;3573;450;43;8;3372;37707;4;3551;441;42;9;1850;21046;4;1968;493;44
01.09.21;17:10:00;1;300;5794;0;2;3398;29859;4;3584;365;54;3;1984;19375;4;2089;437;45;4;2834;27934;5;2952;228;47;5;4078;63353;4;2197;1777;400;647;48;6;3043;47820;4;1487;1466;564;539;44;7;3572;37447;4;3755;445;43;8;3542;37426;4;3732;439;43;9;1952;20892;4;2070;488;44
01.09.21;17:05:00;1;353;5767;0;2;3420;29575;4;3613;364;54;3;1990;19210;4;2097;440;45;4;2850;27698;5;2969;224;48;5;4203;63013;4;2267;1829;402;646;48;6;3138;47566;4;1537;1516;562;539;44;7;3655;37149;4;3841;439;43;8;3620;37131;4;3808;440;43;9;2000;20729;4;2120;479;45
01.09.21;17:00:00;1;338;5736;0;2;3525;29289;4;3720;364;55;3;2055;19043;4;2167;443;46;4;2965;27459;5;3088;223;48;5;4435;62660;4;2396;1935;397;634;48;6;3323;47301;4;1639;1602;560;535;44;7;3762;36843;4;3954;437;43;8;3726;36828;4;3911;437;43;9;2051;20562;4;2177;485;45
01.09.21;16:55:00;1;350;5708;0;2;3615;28996;4;3817;368;55;3;2101;18872;4;2218;442;46;4;3053;27212;5;3181;224;48;5;4632;62289;4;2526;2023;399;636;48;6;3494;47024;4;1725;1696;557;538;44;7;3847;36531;4;4047;432;44;8;3836;36519;4;4037;430;44;9;1700;20391;4;1802;385;36
01.09.21;16:50:00;1;302;5679;0;2;3685;28694;4;3893;369;55;3;2179;18697;4;2296;445;46;4;3100;26958;5;3229;225;48;5;4830;61901;4;2629;2116;397;635;49;6;3645;46731;4;1808;1764;563;535;44;7;3960;36209;4;4161;438;44;8;3940;36198;4;4140;435;44;9;2189;20214;4;2317;486;46
01.09.21;16:45:00;1;347;5654;0;2;3773;28388;4;3982;368;56;3;2241;18515;4;2360;445;46;4;3215;26700;5;3350;222;48;5;5118;61494;4;2778;2245;399;636;49;6;3850;46426;4;1912;1873;558;534;45;7;3253;35880;4;3418;342;35;8;4073;35871;4;4278;435;44;9;2255;20033;4;2386;485;46
01.09.21;16:40:00;1;407;5624;0;2;3877;28072;4;4084;355;56;3;2305;18328;4;2425;442;47;4;3265;26432;5;3401;221;48;5;5254;61065;4;2867;2306;391;628;49;6;3879;46105;4;1940;1872;552;536;45;7;4263;35536;4;4471;428;45;8;4245;35529;4;4458;426;44;9;2352;19843;4;2487;483;47
01.09.21;16:35:00;1;445;5590;0;2;3955;27749;4;4179;362;56;3;2340;18137;4;2464;439;47;4;3416;26158;5;3558;220;48;5;5654;60627;4;3090;2491;395;625;49;6;4236;45776;4;2117;2067;554;533;45;7;4386;35182;4;4605;428;45;8;4345;35176;4;4567;429;45;9;2407;19647;4;2548;477;47
01.09.21;16:30:00;1;640;5545;0;2;3987;27419;4;4209;365;57;3;2289;17942;4;2408;435;47;4;3437;25875;5;3580;222;48;5;5715;60155;4;3137;2513;392;627;49;6;4303;45422;4;2152;2096;558;536;45;7;4417;34816;4;4641;430;45;8;4393;34815;4;4616;433;45;9;2435;19446;4;2576;480;47
01.09.21;16:25:00;1;620;5491;0;2;4024;27087;4;4245;364;57;3;2385;17751;4;2507;432;47;4;3464;25588;5;3608;223;48;5;5836;59679;4;3185;2568;395;629;49;6;4380;45064;4;2193;2134;555;534;45;7;4485;34448;4;4711;436;45;8;4448;34448;4;4680;432;45;9;2470;19243;4;2613;482;47
01.09.21;16:20:00;1;505;5439;0;2;3589;26751;4;3791;372;57;3;2256;17552;4;2379;450;47;4;3236;25299;5;3370;226;48;5;5548;59189;4;3042;2443;391;625;49;6;4184;44697;4;2085;2040;557;530;46;7;4164;34074;4;4381;441;46;8;4120;34080;4;4328;436;45;9;2259;19038;4;2387;466;47
01.09.21;16:15:00;1;611;5395;0;2;4198;26450;4;4427;355;58;3;2598;17363;4;2728;439;48;4;3661;25028;5;3814;223;50;5;6284;58735;4;3465;2776;389;624;49;6;4700;44354;4;2365;2295;552;530;46;7;4735;33725;4;4979;428;46;8;4658;33731;4;4905;427;46;9;2569;18847;4;2715;477;48
01.09.21;16:10:00;1;412;5349;0;2;4244;26098;4;4478;358;58;3;2629;17146;4;2760;431;48;4;3724;24722;5;3879;219;50;5;6540;58207;4;3604;2893;387;624;49;6;4909;43958;4;2476;2399;545;523;46;7;4852;33329;4;5098;421;46;8;4815;33343;4;5052;423;46;9;2676;18633;4;2827;471;48
01.09.21;16:05:00;1;304;5320;0;2;4292;25745;4;4521;355;58;3;2644;16927;4;2775;418;48;4;3792;24411;5;3950;217;50;5;6739;57662;4;3709;2982;387;624;49;6;5059;43548;4;2526;2453;546;523;46;7;4955;32925;4;5207;421;46;8;4903;32942;4;5154;424;46;9;2731;18412;4;2881;476;49
01.09.21;16:00:00;1;357;5294;0;2;4428;25386;4;4672;355;58;3;2758;16706;4;2895;438;49;4;3900;24095;5;4062;216;49;5;7086;57097;4;3903;3139;381;623;49;6;5351;43124;4;2696;2633;545;526;46;7;5136;32511;4;5395;421;46;8;5090;32533;4;5350;421;46;9;2850;18182;4;3006;465;49
01.09.21;15:55:00;1;299;5264;0;2;4484;25017;4;4732;354;58;3;2836;16476;4;2978;432;49;4;3934;23771;5;4098;215;48;5;7263;56505;4;4020;3223;380;618;48;6;5474;42676;4;2769;2691;541;518;46;7;5135;32085;4;5401;423;46;8;5029;32112;4;5282;422;46;9;2843;17947;4;3007;470;49
01.09.21;15:50:00;1;339;5239;0;2;4405;24643;4;4647;353;58;3;2777;16240;4;2919;437;49;4;3809;23441;5;3967;211;48;5;7073;55897;4;3904;3138;383;620;48;6;5401;42216;4;2729;2655;541;518;46;7;5094;31656;4;5347;416;46;8;5061;31692;4;5313;414;46;9;2847;17710;4;3005;464;49
01.09.21;15:45:00;1;355;5211;0;2;4552;24276;4;4800;353;58;3;2852;16008;4;2993;437;49;4;3931;23125;5;4094;211;48;5;7496;55303;4;4153;3326;380;612;48;6;5708;41765;4;2893;2816;543;523;46;7;5262;31230;4;5530;410;47;8;5258;31270;4;5516;414;46;9;2932;17471;4;3093;466;49
01.09.21;15:40:00;1;304;5182;0;2;4535;23897;4;4784;357;58;3;2871;15771;4;3012;440;49;4;4007;22798;5;4174;213;48;5;7600;54678;4;4189;3380;382;616;48;6;5827;41287;4;2955;2868;547;534;46;7;5307;30792;4;5571;418;47;8;5310;30835;4;5565;409;46;9;2964;17228;4;3125;467;49
01.09.21;15:35:00;1;339;5156;0;2;4529;23520;4;4774;355;58;3;2867;15532;4;3003;432;49;4;4028;22463;5;4196;212;48;5;7723;54043;4;4269;3431;376;612;48;6;5833;40802;4;2960;2875;535;515;46;7;5372;30351;4;5636;413;47;8;5337;30388;4;5600;408;47;9;2980;16981;4;3140;465;49
01.09.21;15:30:00;1;409;5127;0;2;4517;23142;4;4763;354;58;3;2804;15293;4;2944;434;49;4;4057;22129;5;4226;211;48;5;7530;53400;4;4182;3340;373;615;48;6;5645;40319;4;2888;2760;532;516;46;7;5490;29907;4;5763;410;46;8;5464;29952;4;5732;410;47;9;3047;16735;4;3213;464;49
01.09.21;15:25:00;1;426;5093;0;2;4627;22766;4;4881;357;58;3;3003;15059;4;3149;445;49;4;3968;21790;5;4133;213;48;5;7701;52784;4;4271;3413;376;607;48;6;5727;39857;4;2903;2827;534;515;46;7;5556;29445;4;5833;417;46;8;5530;29493;4;5808;414;46;9;3091;16480;4;3262;469;49
01.09.21;15:20:00;1;364;5061;0;2;4638;22380;4;4888;355;58;3;3009;14808;4;3153;446;49;4;4099;21454;5;4269;212;49;5;8120;52140;4;4509;3601;375;606;48;6;6125;39371;4;3128;3010;536;519;46;7;5649;28984;4;5934;413;46;8;5624;29028;4;5905;411;46;9;3147;16220;4;3317;463;49
01.09.21;15:15:00;1;345;5030;0;2;4718;21992;4;4975;356;57;3;3056;14557;4;3205;442;49;4;4227;21112;5;4403;214;49;5;8337;51477;4;4628;3712;377;603;48;6;6300;38873;4;3218;3104;534;517;46;7;5740;28513;4;6035;418;46;8;5699;28560;4;5979;416;46;9;3173;15957;4;3347;463;49